Location: Newark
(35.0033°N, 81.0878°W)
Time: 06:31:55
(UTC+00:00)

Envisat - Pass Details

Date: 25 October 2020
Orbit: 764 x 766 km, 98.1° (Epoch: 30 November)

Event Time Altitude Azimuth Distance (km) Brightness Sun altitude
Rises 09:58:21 0° 38° (NE) 3,234 6.8 -21.3°
Reaches altitude 10° 10:02:21 10° 70° (ENE) 2,302 6.5 -20.5°
Maximum altitude 10:04:10 12° 91° (E) 2,172 6.5 -20.1°
Drops below altitude 10° 10:06:00 10° 112° (ESE) 2,296 6.5 -19.7°
Sets 10:09:57 0° 144° (SE) 3,215 6.8 -18.9°
